QTR78M OTHH-LIMC

Flight info

Callsign QTR78M
Flight time N/A
Altitude 28000
Route DATRI L564 BAT/N0488F290 L564 MIGMA/N0474F280 M628 AMBAG/N0488F380 M321 NAGUB/N0486F400 M321 KSA T503 OVANO L768 FIRAS R655 KTN R785 NIKAS L619 VESAR UN135 IMR UN127 RIKSO DCT TALAS DCT MAVAR DCT GEBNI DCT SPL DCT BAXON/N0483F410 DCT GOXIN DCT OTNUN DCT LOMED/N0480F400 DCT BEROK DCT MIVKI DCT GOLAS/N0379F180 T648 MEBUR
Aircraft A359/H-SDE2E3GHIJ3J4J5LM1ORWXY/LB1D1

Departure

Time 2026-05-06 11:54
Airport Hamad International Airport (OTHH)

Arrival

Time N/A
Airport Milan Malpensa International Airport (LIMC)
Time Latitude Longitude Altitude Speed Heading
2026-05-06 11:27 25.26592 51.61037 36 ft 0 kts 68°
2026-05-06 11:42 25.26592 51.61035 36 ft 2 kts 68°
2026-05-06 11:42 25.26583 51.61010 35 ft 4 kts 68°
2026-05-06 11:42 25.26575 51.60989 36 ft 3 kts 69°
2026-05-06 11:43 25.26569 51.60964 35 ft 4 kts 89°
2026-05-06 11:43 25.26572 51.60937 36 ft 4 kts 111°
2026-05-06 11:43 25.26580 51.60915 36 ft 3 kts 113°
2026-05-06 11:44 25.26592 51.60886 36 ft 0 kts 113°
2026-05-06 11:47 25.26592 51.60887 36 ft 1 kts 113°
2026-05-06 11:47 25.26579 51.60917 36 ft 11 kts 119°
2026-05-06 11:48 25.26486 51.60976 36 ft 20 kts 156°
2026-05-06 11:48 25.26361 51.61032 36 ft 18 kts 159°
2026-05-06 11:48 25.26274 51.61069 36 ft 13 kts 165°
2026-05-06 11:48 25.26206 51.61050 36 ft 4 kts 245°
2026-05-06 11:49 25.26192 51.60997 36 ft 11 kts 254°
2026-05-06 11:49 25.26166 51.60896 36 ft 17 kts 254°
2026-05-06 11:49 25.26123 51.60766 36 ft 19 kts 248°
2026-05-06 11:49 25.26072 51.60626 36 ft 20 kts 248°
2026-05-06 11:50 25.25988 51.60549 36 ft 16 kts 161°
2026-05-06 11:50 25.25878 51.60596 35 ft 18 kts 157°
2026-05-06 11:50 25.25763 51.60646 35 ft 16 kts 165°
2026-05-06 11:50 25.25734 51.60644 35 ft 0 kts 195°
2026-05-06 11:51 25.25710 51.60632 35 ft 8 kts 211°
2026-05-06 11:51 25.25703 51.60622 34 ft 0 kts 241°
2026-05-06 11:53 25.25703 51.60621 34 ft 1 kts 241°
2026-05-06 11:53 25.25691 51.60579 33 ft 11 kts 258°
2026-05-06 11:53 25.25717 51.60471 32 ft 16 kts 320°
2026-05-06 11:54 25.25865 51.60398 35 ft 46 kts 338°
2026-05-06 11:54 25.26376 51.60174 33 ft 110 kts 338°
2026-05-06 11:54 25.27269 51.59780 36 ft 164 kts 339°
2026-05-06 11:54 25.28344 51.59294 651 ft 164 kts 342°
2026-05-06 11:55 25.29383 51.58825 1362 ft 162 kts 340°
2026-05-06 11:55 25.30433 51.58327 1729 ft 171 kts 339°
2026-05-06 11:55 25.31592 51.57809 1956 ft 188 kts 342°
2026-05-06 11:55 25.32883 51.57267 2246 ft 207 kts 341°
2026-05-06 11:56 25.34277 51.56674 2592 ft 223 kts 341°
2026-05-06 11:56 25.35798 51.56018 2872 ft 246 kts 340°
2026-05-06 11:56 25.37439 51.55296 3267 ft 259 kts 341°
2026-05-06 11:56 25.39147 51.54540 3737 ft 269 kts 340°
2026-05-06 11:57 25.40891 51.53763 3947 ft 272 kts 340°
2026-05-06 11:57 25.42637 51.52989 4046 ft 269 kts 340°
2026-05-06 11:57 25.44380 51.52217 4395 ft 272 kts 339°
2026-05-06 11:57 25.46136 51.51401 5047 ft 274 kts 336°
2026-05-06 11:58 25.47643 51.50109 5736 ft 279 kts 309°
2026-05-06 11:58 25.48403 51.48126 6354 ft 287 kts 281°
2026-05-06 11:58 25.48454 51.45902 6982 ft 290 kts 271°
2026-05-06 11:58 25.48354 51.43676 7652 ft 290 kts 270°
2026-05-06 11:59 25.48244 51.41464 8265 ft 293 kts 270°
2026-05-06 11:59 25.48136 51.39205 8930 ft 294 kts 270°
2026-05-06 11:59 25.48031 51.36940 9621 ft 296 kts 270°
2026-05-06 11:59 25.47930 51.34666 10262 ft 297 kts 270°
2026-05-06 12:00 25.47827 51.32374 10949 ft 297 kts 269°
2026-05-06 12:00 25.47718 51.30093 11715 ft 296 kts 268°
2026-05-06 12:00 25.47230 51.27872 12353 ft 302 kts 246°
2026-05-06 12:00 25.45896 51.26071 12971 ft 309 kts 220°
2026-05-06 12:01 25.43899 51.25033 13273 ft 330 kts 195°
2026-05-06 12:01 25.41546 51.24885 13564 ft 348 kts 180°
2026-05-06 12:01 25.39112 51.25024 13836 ft 361 kts 180°
2026-05-06 12:01 25.36558 51.25149 14100 ft 374 kts 180°
2026-05-06 12:02 25.33939 51.25234 14538 ft 379 kts 181°
2026-05-06 12:02 25.31286 51.25295 15061 ft 381 kts 181°
2026-05-06 12:02 25.28617 51.25363 15613 ft 384 kts 179°
2026-05-06 12:02 25.25966 51.25849 16060 ft 390 kts 165°
2026-05-06 12:03 25.23409 51.26852 16633 ft 391 kts 161°
2026-05-06 12:03 25.20863 51.27941 17172 ft 394 kts 161°
2026-05-06 12:03 25.18303 51.29039 17699 ft 396 kts 161°
2026-05-06 12:03 25.15724 51.30137 18230 ft 399 kts 161°
2026-05-06 12:04 25.13125 51.31237 18677 ft 402 kts 161°
2026-05-06 12:04 25.10507 51.32339 19101 ft 405 kts 161°
2026-05-06 12:04 25.07852 51.33457 19549 ft 409 kts 161°
2026-05-06 12:04 25.05216 51.34574 19957 ft 413 kts 161°
2026-05-06 12:05 25.02539 51.35701 20407 ft 416 kts 162°
2026-05-06 12:05 24.99816 51.36843 20883 ft 419 kts 162°
2026-05-06 12:05 24.97083 51.37989 21338 ft 421 kts 162°
2026-05-06 12:05 24.94330 51.39152 21764 ft 426 kts 161°
2026-05-06 12:06 24.91770 51.40601 22128 ft 432 kts 150°
2026-05-06 12:06 24.89345 51.42460 22637 ft 434 kts 148°
2026-05-06 12:06 24.86871 51.44402 23051 ft 438 kts 148°
2026-05-06 12:06 24.84376 51.46354 23436 ft 442 kts 148°
2026-05-06 12:07 24.81910 51.48282 23783 ft 445 kts 148°
2026-05-06 12:07 24.79375 51.50262 24183 ft 447 kts 148°
2026-05-06 12:07 24.76824 51.52224 24605 ft 448 kts 150°
2026-05-06 12:07 24.74108 51.53912 25017 ft 447 kts 160°
2026-05-06 12:08 24.71310 51.54986 25398 ft 445 kts 171°
2026-05-06 12:08 24.68451 51.55467 25803 ft 442 kts 181°
2026-05-06 12:08 24.65393 51.55359 26219 ft 439 kts 192°
2026-05-06 12:08 24.62375 51.54817 26622 ft 440 kts 195°
2026-05-06 12:09 24.59388 51.54115 27046 ft 441 kts 197°
2026-05-06 12:09 24.56401 51.53349 27489 ft 442 kts 198°
2026-05-06 12:09 24.53402 51.52572 27928 ft 443 kts 198°
2026-05-06 12:09 24.50427 51.51818 28323 ft 445 kts 198°
2026-05-06 12:10 24.47396 51.51067 28745 ft 447 kts 198°
2026-05-06 12:10 24.44432 51.50069 29170 ft 444 kts 206°
2026-05-06 12:10 24.41653 51.48612 29550 ft 443 kts 214°
2026-05-06 12:10 24.39130 51.46687 29858 ft 442 kts 223°
2026-05-06 12:11 24.36942 51.44313 30091 ft 443 kts 233°
2026-05-06 12:11 24.35301 51.41792 30343 ft 444 kts 242°
2026-05-06 12:11 24.33962 51.38740 30642 ft 445 kts 251°
2026-05-06 12:11 24.33138 51.35465 30935 ft 448 kts 261°
2026-05-06 12:12 24.32864 51.32059 31211 ft 451 kts 270°
2026-05-06 12:12 24.33074 51.28616 31481 ft 455 kts 276°
2026-05-06 12:12 24.33524 51.25178 31750 ft 457 kts 278°
2026-05-06 12:12 24.33892 51.22898 31945 ft 458 kts 279°
2026-05-06 12:13 24.34487 51.19466 32237 ft 459 kts 280°
2026-05-06 12:13 24.35092 51.16024 32513 ft 460 kts 279°
2026-05-06 12:13 24.35681 51.12573 32775 ft 461 kts 279°
2026-05-06 12:13 24.36252 51.09112 33020 ft 462 kts 279°
2026-05-06 12:14 24.36808 51.05640 33255 ft 463 kts 279°
2026-05-06 12:14 24.37334 51.02285 33491 ft 463 kts 279°
2026-05-06 12:14 24.37874 50.98799 33834 ft 462 kts 279°
2026-05-06 12:14 24.38408 50.95329 34129 ft 460 kts 279°
2026-05-06 12:15 24.38939 50.91876 34376 ft 460 kts 279°
2026-05-06 12:15 24.39470 50.88418 34625 ft 459 kts 278°
2026-05-06 12:15 24.40001 50.84966 34849 ft 459 kts 278°
2026-05-06 12:15 24.40533 50.81511 35051 ft 459 kts 278°
2026-05-06 12:16 24.41064 50.78056 35283 ft 458 kts 278°
2026-05-06 12:16 24.41544 50.74931 35510 ft 458 kts 278°
2026-05-06 12:16 24.42072 50.71481 35738 ft 457 kts 278°
2026-05-06 12:16 24.42597 50.68047 36015 ft 455 kts 278°
2026-05-06 12:17 24.43119 50.64627 36307 ft 453 kts 278°
2026-05-06 12:17 24.43598 50.61489 36495 ft 453 kts 278°
2026-05-06 12:17 24.44115 50.58077 36667 ft 453 kts 278°
2026-05-06 12:17 24.44629 50.54665 36879 ft 453 kts 278°
2026-05-06 12:18 24.45143 50.51263 37074 ft 452 kts 278°
2026-05-06 12:18 24.45630 50.48039 37272 ft 451 kts 278°
2026-05-06 12:18 24.46141 50.44652 37473 ft 451 kts 278°
2026-05-06 12:18 24.46654 50.41251 37657 ft 450 kts 278°
2026-05-06 12:19 24.47155 50.37921 37781 ft 451 kts 278°
2026-05-06 12:19 24.47660 50.34555 37794 ft 452 kts 278°
2026-05-06 12:19 24.48681 50.27741 37803 ft 451 kts 278°
2026-05-06 12:20 24.49693 50.20965 37796 ft 451 kts 278°
2026-05-06 12:20 24.50700 50.14212 37797 ft 451 kts 277°
2026-05-06 12:21 24.51707 50.07445 37799 ft 451 kts 277°
2026-05-06 12:21 24.52709 50.00688 37795 ft 451 kts 277°
2026-05-06 12:22 24.53708 49.93918 37795 ft 451 kts 277°
2026-05-06 12:22 24.54696 49.87202 37793 ft 451 kts 277°
2026-05-06 12:23 24.55673 49.80554 37798 ft 451 kts 277°
2026-05-06 12:23 24.56652 49.73858 37793 ft 451 kts 277°
2026-05-06 12:24 24.57609 49.67298 37798 ft 452 kts 277°
2026-05-06 12:24 24.58585 49.60584 37799 ft 452 kts 277°
2026-05-06 12:25 24.59566 49.53831 37801 ft 451 kts 277°
2026-05-06 12:25 24.60546 49.47052 37802 ft 451 kts 277°
2026-05-06 12:26 24.61514 49.40328 37798 ft 451 kts 277°
2026-05-06 12:26 24.62485 49.33537 37799 ft 451 kts 277°
2026-05-06 12:27 24.63457 49.26741 37799 ft 451 kts 277°
2026-05-06 12:27 24.64429 49.19948 37802 ft 450 kts 277°
2026-05-06 12:28 24.65395 49.13151 37803 ft 450 kts 276°
2026-05-06 12:28 24.66356 49.06354 37800 ft 450 kts 276°
2026-05-06 12:29 24.67308 48.99601 37807 ft 450 kts 276°
2026-05-06 12:29 24.68265 48.92810 37806 ft 449 kts 276°
2026-05-06 12:30 24.69217 48.86021 37810 ft 449 kts 276°
2026-05-06 12:30 24.70165 48.79229 37815 ft 449 kts 276°
2026-05-06 12:31 24.71109 48.72442 37815 ft 449 kts 276°
2026-05-06 12:31 24.72047 48.65686 37815 ft 449 kts 276°
2026-05-06 12:32 24.72983 48.58922 37820 ft 446 kts 276°
2026-05-06 12:32 24.73913 48.52179 37823 ft 445 kts 276°
2026-05-06 12:33 24.74840 48.45443 37826 ft 445 kts 276°
2026-05-06 12:33 24.75764 48.38698 37842 ft 445 kts 276°
2026-05-06 12:34 24.76682 48.31965 37842 ft 445 kts 276°
2026-05-06 12:34 24.77591 48.25278 37846 ft 445 kts 276°
2026-05-06 12:35 24.78506 48.18538 37855 ft 445 kts 276°
2026-05-06 12:35 24.79413 48.11821 37861 ft 443 kts 276°